OBJECT A, 58502

Orbit data source: Space-Track

You're viewing an Uncataloged Satellite

Recently launched and/or uncataloged satellites may have evolving metadata. Metadata may include but not limited to: Owner, Maufacturer, Bus, Motor, and Mission.

OBJECT A, 58502 is a Chinese satellite in SSO that was launched on Mon, 04 Dec 2023 UTC via a GUSHENXING 1 launch vehicle from the Jiuquan Satellite Launch Center, China (JSC). Unknown objects in Earth's orbit typically refer to objects detected orbiting the Earth but have not yet been identified or cataloged. These objects could be anything from previously untracked satellites, spent rocket stages, debris from satellite collisions, or even natural meteoroids temporarily captured by Earth's gravity.

Loading next visibility...
Identifier
58502, 2023-189A
Orbit
SSO
Country
Flag of CNCN / PRC
Related business
Flag of CNZhiyi Aerospace (Beijing) Technology Co. Ltd (CN)
Manufacturer
Gengyu Muxing
Mission
Operational Commercial Imaging
Bus & Motor
MN50, Unknown motor
Mass
165 kg wet, 165 kg dry
Launch date (UTC)
2023-12-04 (3 years ago)
Launch vehicle
GUSHENXING 1
Launch site
Jiuquan Satellite Launch Center, China (JSC)
Object type
Unknown
Shape & HBR
Box + 2 Pan, 0.5 m
Radar Cross Section
0.195 m², Large (>1 m²)

Expand to show TLE details & history
Last TLE update: 23 hours ago

TLE from 23 hours ago
0 OBJECT A
1 58502U 23189A   26172.48861866  .00003311  00000-0  10516-3 0  9992
2 58502  97.4372 190.7535 0009376 238.5224 121.5102 15.33346918141871
Epoch: 2026-06-21T11:43Z
TLE epoch observation values (Epoch: 2026-06-21T11:43:36.652Z)
Latitude
-0.00005°
Longitude
105.16263°
Altitude
472.301 km
Speed
7.628 km/s
True Right ascension
12h 43m 00s
True Declination
0° 00' 00"
Sunlit
Object was in daylight at epoch
Visualization orbit readout
Latitude
Unknown
Longitude
Unknown
Altitude
Unknown
Speed
Unknown
Apparent Right ascension
Unknown
Apparent Declination
Unknown
Sunlit
N/A
Visualization observer readout
Local Sidereal Time
21:30:52
Azimuth
Unknown
Elevation
Unknown
Doppler factor
Unknown
Orbital elements
Apogee altitude
469.198 km
Perigee altitude
456.37 km
Semi-major axis
6,840.921 km
Eccentricity
0.00094
Inclination
97.4372°
RAAN
190.7535°
Arg. of periapsis
238.5224°
True anomaly
121.60174°
Mean anomaly
121.5102°
Eccentric anomaly
121.55598°
Mean motion
3.83594 °/min
Orbital period
93.85 mins
BSTAR
0.00010516
Loading maneuver chart data...
Computing Atmospheric mass density...
Loading historical data...
Loading historical data...
Loading historical data...
Loading historical data...
Loading historical data...
Loading historical data...
Loading historical data...
Other satellites on launch #189 in the year 2023 (2023-12-04 UTC)

Documentation

Showing up to 5 results
|